User: anonymous   Login
Location: Iola
(37.9240°N, 95.4000°W)
Time: 01:41:31
(UTC-05:00)
Language:

Meteor 2-10 Rocket - Orbit

View from above orbital plane
View from above orbital plane
View from above satellite
View from above satellite

Ground track
Ground track

The orbit data is extracted from the following two-line orbital elements,

1 14453U 83109B   16125.21743858  .00000065  00000-0  21040-4 0  9993
2 14453  81.1655 157.7191 0105353 166.2038 194.2061 14.24645373689295
Epoch (UTC): 04 May 2016 05:13:06
Eccentricity: 0.0105353
inclination: 81.1655°
perigee height: 734 km
apogee height: 885 km
right ascension of ascending node: 157.7191°
argument of perigee: 166.2038°
revolutions per day: 14.24645373
mean anomaly at epoch: 194.2061°
orbit number at epoch: 68929

The dashed part of the orbit path shows where the satellite is in the earth's shadow,  

DLR